Location: �chemir�
(47.5500°N, 0.1667°W)
Time: 20:50:45
(UTC+02:00)

ISS - Visible Passes

Search period start: 13 May 2021 00:00
Search period end: 23 May 2021 00:00
Orbit: 417 x 422 km, 51.6° (Epoch: 13 May)

Date Brightness Start Highest point End Pass type
(mag) Time Alt. Az. Time Alt. Az. Time Alt. Az.
13 May -2.2 02:05:02 33° NE 02:05:02 33° NE 02:07:14 10° ENE visible
13 May -2.5 03:37:56 10° WNW 03:41:09 42° N 03:44:24 10° E visible
13 May -3.8 05:14:46 10° WNW 05:18:08 73° SSW 05:21:31 10° ESE visible
14 May -1.5 01:18:38 19° ENE 01:18:38 19° ENE 01:19:47 10° ENE visible
14 May -2.4 02:51:31 18° WNW 02:53:37 39° N 02:56:49 10° ENE visible
14 May -3.7 04:27:19 10° WNW 04:30:42 80° NNE 04:34:05 10° ESE visible
14 May -2.6 22:49:42 10° SSW 22:52:24 23° SE 22:55:08 10° E visible
15 May -3.7 00:25:35 10° WSW 00:28:57 76° NNW 00:32:20 10° ENE visible
15 May -2.4 02:02:51 10° WNW 02:06:03 39° N 02:09:16 10° ENE visible
15 May -3.3 03:39:52 10° WNW 03:43:14 61° NNE 03:46:35 10° E visible
15 May -3.0 05:16:51 10° WNW 05:19:55 32° SW 05:22:58 10° SSE visible
15 May -3.9 23:38:08 10° WSW 23:41:30 78° SSE 23:44:52 10° ENE visible
16 May -2.5 01:15:17 10° W 01:18:30 42° N 01:21:45 10° ENE visible
16 May -2.8 02:52:25 10° WNW 02:55:43 49° NNE 02:59:01 10° E visible
16 May -3.6 04:29:17 10° WNW 04:32:34 49° SSW 04:35:50 10° SE visible
16 May -3.7 22:50:49 10° SW 22:54:05 53° SSE 22:57:24 10° ENE visible
17 May -2.7 00:27:42 10° W 00:30:58 47° NNW 00:34:15 10° ENE visible
17 May -2.5 02:04:56 10° WNW 02:08:11 42° N 02:11:26 10° E visible
17 May -3.9 03:41:48 10° WNW 03:45:10 73° SSW 03:48:32 10° ESE visible
17 May -2.0 05:19:39 10° WSW 05:21:29 14° SW 05:23:19 10° SSW visible
17 May -3.1 23:40:07 10° W 23:43:27 58° NNW 23:46:48 10° ENE visible
18 May -2.4 01:17:25 10° WNW 01:20:38 39° N 01:22:54 17° ENE visible
18 May -1.9 02:54:20 10° WNW 02:55:48 24° WNW 02:55:48 24° WNW visible
18 May -3.6 22:52:36 10° WSW 22:55:57 76° NNW 22:59:20 10° ENE visible
19 May -2.3 00:29:52 10° WNW 00:33:04 39° N 00:36:17 10° ENE visible
19 May -2.7 02:06:53 10° WNW 02:09:24 43° NW 02:09:24 43° NW visible
19 May -2.4 23:42:17 10° W 23:45:31 41° N 23:48:44 10° ENE visible
20 May -2.9 01:19:25 10° WNW 01:22:43 49° NNE 01:23:14 44° NE visible
20 May -2.7 22:54:40 10° W 22:57:57 47° NNW 23:01:14 10° ENE visible
21 May -2.6 00:31:55 10° WNW 00:35:10 42° N 00:37:09 20° ENE visible
21 May -1.8 02:08:46 10° WNW 02:10:05 21° WNW 02:10:05 21° WNW visible
21 May -2.4 23:44:24 10° WNW 23:47:36 39° N 23:50:49 10° ENE visible
22 May -3.2 01:21:18 10° WNW 01:24:02 55° NW 01:24:02 55° NW visible
22 May -2.4 22:56:49 10° WNW 23:00:01 39° N 23:03:14 10° ENE visible
